Location: Truman State University Observatory
(40.1787°N, 92.6006°W)
Time: 08:13:08
(UTC-05:00)

OTV 5 (USA 277) - Visible Passes

Search period start: 25 September 2017 00:00
Search period end: 05 October 2017 00:00
Orbit: 404 x 417 km, 43.0° (Epoch: 07 September)

Date Brightness Start Highest point End Pass type
(mag) Time Alt. Az. Time Alt. Az. Time Alt. Az.
25 Sep ? 05:07:40 45° NNE 05:07:40 45° NNE 05:10:25 10° ENE visible
26 Sep ? 04:19:03 12° ENE 04:19:03 12° ENE 04:19:19 10° ENE visible
26 Sep ? 05:51:49 23° WNW 05:53:37 60° N 05:56:53 10° E visible
27 Sep ? 05:03:16 41° NE 05:03:16 41° NE 05:05:44 10° E visible
27 Sep ? 06:36:38 10° WNW 06:39:53 60° SSW 06:43:08 10° ESE visible
28 Sep ? 05:47:32 34° WNW 05:48:51 85° SSW 05:52:08 10° ESE visible
29 Sep ? 04:59:09 32° E 04:59:09 32° E 05:01:03 10° E visible
29 Sep ? 06:32:03 10° W 06:34:55 27° SSW 06:37:45 10° SSE visible
30 Sep ? 05:43:38 39° SW 05:43:56 40° SSW 05:47:03 10° SE visible
01 Oct ? 04:55:27 15° SE 04:55:27 15° SE 04:56:10 10° ESE visible
01 Oct ? 06:28:28 10° WSW 06:29:45 12° SW 06:31:03 10° SSW visible
02 Oct ? 05:40:12 15° S 05:40:12 15° S 05:41:13 10° S visible
